Regional Weather Roundup
Issued by NWS Mobile, AL

Home | Current Version | Previous Version | Text Only | Print | Product List | Glossary On
Versions: 1 2 3 4 5 6 7 8 9 10 11 12 13 14 15 16 17 18 19 20 21 22 23 24 25 26 27
000
ASUS44 KMOB 240813
RWRMOB
REGIONAL WEATHER ROUNDUP
NATIONAL WEATHER SERVICE MOBILE AL
300 AM CDT SUN SEP 24 2017

NOTE: "FAIR" INDICATES FEW OR NO CLOUDS BELOW 12,000 FEET WITH NO
      SIGNIFICANT WEATHER AND/OR OBSTRUCTIONS TO VISIBILITY.

  * THESE STATIONS ARE PART OF THE UNIVERSITY OF SOUTH ALABAMA
    MESONET AND ARE NOT UNDER NWS OR FAA QUALITY CONTROL.

ALZ061>064-240900-
COASTAL ALABAMA

CITY           SKY/WX    TMP DP  RH WIND       PRES   REMARKS
MOBILE REG APT PTCLDY    71  67  87 N5        29.93S
BROOKLEY FIELD CLEAR     73  72  96 N7        29.93S
USA CAMPUS*    NOT AVBL
DOG RIVER*     NOT AVBL


CITY           SKY/WX    TMP DP  RH WIND       PRES   REMARKS
GULF SHORES    PTCLDY    71  68  89 NE3       29.91S

$$

ALZ051>060-240900-
INTERIOR SOUTHWEST AND SOUTH CENTRAL ALABAMA

CITY           SKY/WX    TMP DP  RH WIND       PRES   REMARKS
GREENVILLE     CLEAR     71  65  81 CALM      29.96S
EVERGREEN      CLEAR     67  66  97 CALM      29.95S
ATMORE*          N/A    N/A N/A N/A NE2       30.71R
ANDALUSIA/OPP  CLEAR     72  68  87 CALM      29.95S
ANDALUSIA*       N/A     70  68  94 E6        29.95S
FLORALA APT    NOT AVBL
FLORALA*         N/A     70  68  94 CALM      30.61F

$$

FLZ001>006-240900-
WESTERN FLORIDA PANHANDLE

CITY           SKY/WX    TMP DP  RH WIND       PRES   REMARKS
PENSACOLA      CLEAR     76  67  73 E5        29.91F
NAS PENSACOLA  CLEAR     75  68  78 NE6       29.90F
MILTON         CLEAR     70  67  90 NE5       29.92F
WHTNG S FIELD  CLEAR     74  68  81 NE8       29.92F


CITY           SKY/WX    TMP DP  RH WIND       PRES   REMARKS
JAY*             N/A     72  66  83 E3        29.93F
DUKE FIELD     CLEAR     69  66  89 CALM      29.92F
CRESTVIEW      CLEAR     69  66  90 CALM      29.94F
VALPARAISO     CLEAR     75  67  75 NE3       29.91F
DESTIN         CLEAR     78  70  76 E6        29.91F

$$

MSZ076-079-240900-
INTERIOR SOUTHEAST MISSISSIPPI

CITY           SKY/WX    TMP DP  RH WIND       PRES   REMARKS
LEAKESVILLE*     N/A     68  66  94 E2        29.95S
AGRICOLA*        N/A     70  68  94 CALM      29.93R

$$

MARINE OBSERVATIONS

STATION/POSITION TIME  TEMP    WIND        PRES    WAVE
                       AIR SEA DIR/SP/G            HT/PER
                 (UTC) (F)     (DEG/KT/KT) (MB)    (FT/S)
PASCAGOULA       0748   74      20/  5/  6 1012.7F
PETIT BOIS ISLND 0748   78      40/  8/ 10 1013.3F
GRAND BAY        0630   74      20/  5     1014.0S
KATRINA CUT      0730   80      40/ 10     1012.9F
CEDAR POINT      0730   80      70/  8     1012.9S
E DAUPHIN ISLAND 0700   80      40/  9/  9 1012.4F
MIDDLE BAY LIGHT 0730   79      70/ 14     1012.5F
USCG MOBILE BAY  0748   73 84  340/  3/  5 1013.1F
STATE DOCKS      0736   74 82              1013.2F
MEAHER PARK      0730   73     360/  2     1013.5R
WEEKS BAY        0645   72                 1013.0S
FORT MORGAN      0748   79      70/ 11/ 12   N/A
12 S ORANGE BCH  0750   82 83   80/ 12/ 14 1012.0F   1/ 6
PENSACOLA BAY    0736   78 84              1012.9F
64 S DAUPHIN ISL 0800   82 83   70/ 10/ 14 1011.8
67 S FORT MORGAN 0730   81                 1012.5S

$$

SELECTED LOCATIONS ACROSS THE REGION

CITY           SKY/WX    TMP DP  RH WIND       PRES   REMARKS
NEW ORLEANS    PTCLDY    78  72  81 VRB5      29.91R
GULFPORT       PTCLDY    71  69  93 N3        29.91S
PASCAGOULA AP  CLOUDY    70  67  90 CALM      29.91F
PASCAGOULA*      N/A     54  54 100 N3          N/A
HATTIESBURG    CLEAR     68  68 100 CALM      29.95S
LAUREL         CLEAR     66  66 100 NE3       29.96S
MERIDIAN       CLEAR     67  67 100 CALM      29.96S
JACKSON        CLEAR     69  67  93 CALM      29.95S
MONTGOMERY     CLEAR     71  66  84 E3        29.98S
TROY           CLEAR     68  68 100 CALM      29.98S
ASHFORD*         N/A     70  68  94 E6        29.95S
DOTHAN         PTCLDY    69  68  96 NE3       29.99F
PANAMA CITY    CLOUDY    73  69  87 NE6       29.91F

$$





USA.gov is the U.S. government's official web portal to all federal, state and local government web resources and services.